Find Starlink 30811

NORAD ID: 58167 Int'l Des: 2023-166 Owner: SPXS Country: US Constellation: starlink operational
LEOCIRCULAR

現在のビュー

3D地球を読み込み中...

About Starlink 30811

Starlink 30811 (NORAD 58167) is a starlink constellation satellite (v2 mini) launched Oct 29, 2023 by SPXS of US. It operates in LEO, CIRCULAR orbit with a mass of 730.00 kg.

Starlink 30811について

説明を読み込み中...

次回通過

Passes for default location (London). Set your location on the main map for personalized predictions.

高度履歴

Loading altitude history...

軌道要素

1 58167U 23166T 26169.55949473 .00000031 00000-0 12783-4 0 9994
2 58167 53.1602 110.3274 0001403 95.8370 264.2791 15.31699511148481
Epoch: Jun 18, 2026 • Age: 10 hours

現在のステータス

高度 471.0 km
速度 7.63 km/s
衛星直下点 20.98°N, 126.19°W
打ち上げ日 Oct 29, 2023
運用期間 2.6 years
タイプ internet

技術仕様

分類 Payload
質量 730.00 kg
乾燥質量 700.00 kg
総質量 730.00 kg
長さ 0.30 m
直径 4.10 m
スパン 29.00 m
形状 Box + pan
製造者 SPXS
バスタイプ Starlink V2M
フェーズステータス In Orbit
所有者/国 SPXS/US

Most Searched